Location: Newark
(12.5331°N, 56.4669°W)
Time: 06:33:11
(UTC+00:00)

Envisat - Pass Details

Date: 03 February 2020
Orbit: 764 x 766 km, 98.1° (Epoch: 20 February)

Event Time Altitude Azimuth Distance (km) Brightness Sun altitude
Rises 09:07:57 0° 40° (NE) 3,217 6.6 -15.7°
Reaches altitude 10° 09:11:08 10° 62° (ENE) 2,291 6.2 -15.0°
Maximum altitude 09:14:11 16° 99° (E) 1,899 6.3 -14.3°
Drops below altitude 10° 09:17:14 10° 137° (SE) 2,290 6.4 -13.5°
Sets 09:20:23 0° 158° (SSE) 3,216 6.8 -12.8°
